| time (UTC) | temp C | wind direction | speed KPH | gust KPH | rain 1hr cm | rain 24hr cm | rain mn cm | humidity % | barometer mb |
| 20260906220804 | 17 | 35 | 1.6 | 3.2 | 0.00 | 0.00 | 0.00 | 60 | 1013.8 |
| 20260906220305 | 17 | 71 | 1.6 | 8.0 | 0.00 | 0.00 | 0.00 | 57 | 1013.9 |
| 20260906210304 | 16 | 114 | 1.6 | 8.0 | 0.00 | 0.00 | 0.00 | 61 | 1014.7 |
| 20260906200804 | 15 | 87 | 1.6 | 4.8 | 0.00 | 0.00 | 0.00 | 64 | 1015.3 |
| 20260906200304 | 15 | 346 | 1.6 | 8.0 | 0.00 | 0.00 | 0.00 | 66 | 1015.3 |
| 20260906190804 | 13 | 286 | 0.0 | 3.2 | 0.00 | 0.00 | 0.00 | 74 | 1016.0 |
| 20260906190304 | 12 | 321 | 0.0 | 4.8 | 0.00 | 0.00 | 0.00 | 75 | 1016.1 |
| 20260906180804 | 11 | 59 | 0.0 | 3.2 | 0.00 | 0.00 | 0.00 | 81 | 1016.8 |
| 20260906180304 | 11 | 56 | 0.0 | 11.3 | 0.00 | 0.00 | 0.00 | 81 | 1016.9 |
| 20260906170804 | 9 | 275 | 8.0 | 11.3 | 0.00 | 0.00 | 0.00 | 87 | 1017.2 |
| 20260906170304 | 8 | 272 | 8.0 | 11.3 | 0.00 | 0.00 | 0.00 | 89 | 1017.3 |
| 20260906160805 | 6 | 248 | 3.2 | 3.2 | 0.00 | 0.00 | 0.00 | 99 | 1017.3 |
| 20260906150804 | 3 | 279 | 4.8 | 8.0 | 0.00 | 0.00 | 0.00 | 99 | 1017.4 |
| 20260906150304 | 3 | 275 | 4.8 | 8.0 | 0.00 | 0.00 | 0.00 | 99 | 1017.3 |
| 20260906140804 | 2 | 260 | 4.8 | 8.0 | 0.00 | 0.00 | 0.00 | 98 | 1017.2 |
| 20260906140304 | 2 | 229 | 4.8 | 8.0 | 0.00 | 0.00 | 0.00 | 98 | 1017.2 |
| 20260906130805 | 3 | 282 | 4.8 | 4.8 | 0.00 | 0.00 | 0.00 | 98 | 1016.8 |
| 20260906130305 | 3 | 276 | 4.8 | 4.8 | 0.00 | 0.00 | 0.00 | 98 | 1016.7 |
| 20260906120805 | 3 | 271 | 4.8 | 4.8 | 0.00 | 0.00 | 0.00 | 98 | 1016.8 |
| 20260906120305 | 3 | 268 | 4.8 | 8.0 | 0.00 | 0.00 | 0.00 | 97 | 1016.8 |
| 20260906110806 | 4 | 273 | 4.8 | 9.7 | 0.00 | 0.00 | 0.00 | 97 | 1016.5 |
| 20260906100306 | 5 | 283 | 9.7 | 11.3 | 0.00 | 0.00 | 0.00 | 94 | 1015.8 |
| 20260906090805 | 6 | 132 | 8.0 | 11.3 | 0.00 | 0.00 | 0.00 | 91 | 1015.4 |
| 20260906090305 | 6 | 281 | 4.8 | 11.3 | 0.00 | 0.00 | 0.00 | 92 | 1015.4 |
| 20260906080805 | 7 | 271 | 3.2 | 8.0 | 0.00 | 0.00 | 0.00 | 89 | 1015.2 |
| 20260906080305 | 7 | 335 | 4.8 | 8.0 | 0.00 | 0.00 | 0.00 | 88 | 1015.2 |
| 20260906070812 | 10 | 21 | 3.2 | 8.0 | 0.00 | 0.00 | 0.00 | 81 | 1014.7 |
| 20260906070305 | 10 | 272 | 8.0 | 9.7 | 0.00 | 0.00 | 0.00 | 81 | 1014.6 |
| 20260906060805 | 11 | 265 | 4.8 | 8.0 | 0.00 | 0.00 | 0.00 | 76 | 1014.0 |
| 20260906060305 | 11 | 142 | 1.6 | 4.8 | 0.00 | 0.00 | 0.00 | 75 | 1014.0 |
| 20260906050305 | 14 | 77 | 0.0 | 4.8 | 0.00 | 0.00 | 0.00 | 66 | 1013.3 |
| 20260906040805 | 16 | 97 | 1.6 | 4.8 | 0.00 | 0.00 | 0.00 | 60 | 1012.8 |
| 20260906040306 | 16 | 77 | 1.6 | 4.8 | 0.00 | 0.00 | 0.00 | 60 | 1012.8 |
| 20260906020806 | 21 | 47 | 3.2 | 4.8 | 0.00 | 0.00 | 0.00 | 42 | 1012.2 |
| 20260906020305 | 21 | 3 | 3.2 | 9.7 | 0.00 | 0.00 | 0.00 | 42 | 1012.3 |
| 20260906010805 | 22 | 22 | 3.2 | 4.8 | 0.00 | 0.00 | 0.00 | 40 | 1012.1 |
| 20260906000805 | 21 | 39 | 3.2 | 3.2 | 0.00 | 0.00 | 0.00 | 48 | 1012.5 |
| 20260906000305 | 21 | 356 | 1.6 | 4.8 | 0.00 | 0.00 | 0.00 | 46 | 1012.4 |
| 20260905230805 | 18 | 60 | 1.6 | 1.6 | 0.00 | 0.00 | 0.00 | 50 | 1013.0 |